Manteo, NC

6:08 PM EDT on September 30, 2016 (GMT -0400)
Dare County Regional

Weather History for KMQI - December, 2012

Change the Weather History Date:

Sunday, December 23, 2012

  Actual Average Record
Temperature  
Mean Temperature 45 °F -  
Max Temperature 53 °F 49 °F 72 °F (1990)
Min Temperature 38 °F 37 °F 22 °F (1989)
Degree Days  
Heating Degree Days 20    
Moisture  
Dew Point 31 °F    
Average Humidity 59    
Maximum Humidity 75    
Minimum Humidity 34    
Precipitation  
Precipitation 0.00 in - - ()
Sea Level Pressure  
Sea Level Pressure 30.08 in    
Wind  
Wind Speed 5 mph (WSW)    
Max Wind Speed 12 mph    
Max Gust Speed -    
Visibility 10 miles    
Events      
Averages and records for this station are not official NWS values.
T = Trace of Precipitation, MM = Missing Value Source: NWS Daily Summary

Daily Weather History Graph

Daily Weather History Graph

Search for Another Location

Airport or City:

Trip Planner

Search our weather history database for the weather conditions in past years. The results will help you decide how hot, cold, wet, or windy it might be!

Date:

Astronomy

Dec. 23, 2012 Rise Set
Actual Time 7:10 AM EST 4:53 PM EST
Civil Twilight 6:41 AM EST 5:22 PM EST
Nautical Twilight 6:09 AM EST 5:54 PM EST
Astronomical Twilight 5:38 AM EST 6:25 PM EST
Moon 1:39 PM EST (12/23) 2:55 AM EST (12/23)
Length of Visible Light 10h 40m
Length of Day
9h 43m
Waxing Gibbous, 81% of the Moon is Illuminated
Dec 23
Waxing Gibbous
Dec 28
Full
Jan 4
Last Quarter
Jan 11
New
Jan 18
First Quarter

Hourly Weather History & Observations

Time (EST) Temp. Windchill Dew Point Humidity Pressure Visibility Wind Dir Wind Speed Gust Speed Precip Events Conditions
12:15 AM 41.0 °F 39.0 °F 31.8 °F 70% 30.06 in 10.0 mi WSW 3.5 mph - N/A   Clear
12:35 AM 41.0 °F 39.0 °F 31.6 °F 69% 30.07 in 10.0 mi WNW 3.5 mph - N/A   Clear
12:55 AM 41.0 °F 38.0 °F 31.3 °F 68% 30.07 in 10.0 mi WNW 4.6 mph - N/A   Clear
1:15 AM 41.0 °F 38.0 °F 31.6 °F 69% 30.07 in 10.0 mi West 4.6 mph - N/A   Clear
1:35 AM 41.2 °F 38.2 °F 31.6 °F 69% 30.07 in 10.0 mi West 4.6 mph - N/A   Clear
1:55 AM 40.5 °F 35.8 °F 31.3 °F 70% 30.07 in 10.0 mi West 6.9 mph - N/A   Clear
2:15 AM 40.1 °F 36.1 °F 31.6 °F 72% 30.08 in 10.0 mi West 5.8 mph - N/A   Clear
2:35 AM 39.7 °F 36.5 °F 31.5 °F 72% 30.08 in 10.0 mi West 4.6 mph - N/A   Clear
2:55 AM 39.6 °F 35.4 °F 31.3 °F 72% 30.09 in 10.0 mi West 5.8 mph - N/A   Clear
3:15 AM 39.7 °F 36.5 °F 32.0 °F 74% 30.09 in 10.0 mi West 4.6 mph - N/A   Clear
3:35 AM 39.9 °F 36.7 °F 32.0 °F 73% 30.08 in 10.0 mi West 4.6 mph - N/A   Clear
3:55 AM 40.3 °F 36.3 °F 31.8 °F 72% 30.09 in 10.0 mi WNW 5.8 mph - N/A   Clear
4:15 AM 41.0 °F 38.0 °F 25.7 °F 55% 30.08 in 10.0 mi NW 4.6 mph - N/A   Clear
4:35 AM 40.6 °F 38.6 °F 24.8 °F 53% 30.08 in 10.0 mi NW 3.5 mph - N/A   Clear
4:55 AM 40.1 °F - 24.6 °F 54% 30.08 in 10.0 mi Calm Calm - N/A   Clear
5:15 AM 39.7 °F - 24.6 °F 55% 30.09 in 10.0 mi Calm Calm - N/A   Clear
5:35 AM 39.7 °F 37.6 °F 24.8 °F 55% 30.09 in 10.0 mi NW 3.5 mph - N/A   Clear
5:55 AM 39.6 °F 37.4 °F 25.0 °F 56% 30.10 in 10.0 mi NW 3.5 mph - N/A   Clear
6:15 AM 39.2 °F 37.0 °F 25.3 °F 58% 30.10 in 10.0 mi WNW 3.5 mph - N/A   Clear
6:35 AM 39.0 °F - 25.5 °F 58% 30.11 in 10.0 mi Calm Calm - N/A   Clear
6:55 AM 38.8 °F 35.4 °F 29.3 °F 69% 30.11 in 10.0 mi West 4.6 mph - N/A   Clear
7:15 AM 39.2 °F 35.9 °F 31.3 °F 73% 30.12 in 10.0 mi West 4.6 mph - N/A   Clear
7:35 AM 39.2 °F 34.2 °F 32.0 °F 75% 30.13 in 10.0 mi West 6.9 mph - N/A   Clear
7:55 AM 39.7 °F 36.5 °F 31.8 °F 73% 30.13 in 10.0 mi West 4.6 mph - N/A   Clear
8:15 AM 40.5 °F 37.3 °F 32.0 °F 72% 30.13 in 10.0 mi WNW 4.6 mph - N/A   Clear
8:35 AM 41.5 °F 39.6 °F 32.0 °F 69% 30.14 in 10.0 mi West 3.5 mph - N/A   Clear
8:55 AM 42.3 °F 40.5 °F 32.0 °F 67% 30.14 in 10.0 mi WNW 3.5 mph - N/A   Clear
9:15 AM 43.5 °F 41.9 °F 32.0 °F 64% 30.14 in 10.0 mi West 3.5 mph - N/A   Clear
9:35 AM 44.6 °F 42.2 °F 29.5 °F 55% 30.14 in 10.0 mi WNW 4.6 mph - N/A   Clear
9:55 AM 45.5 °F 43.2 °F 29.1 °F 53% 30.15 in 10.0 mi West 4.6 mph - N/A   Clear
10:15 AM 45.9 °F 42.9 °F 30.2 °F 54% 30.15 in 10.0 mi West 5.8 mph - N/A   Clear
10:35 AM 46.6 °F - 28.4 °F 49% 30.14 in 10.0 mi West 4.6 mph - N/A   Clear
10:55 AM 47.3 °F - 29.3 °F 50% 30.13 in 10.0 mi West 5.8 mph - N/A   Clear
11:15 AM 47.3 °F - 29.5 °F 50% 30.11 in 10.0 mi WSW 4.6 mph - N/A   Clear
11:35 AM 48.4 °F - 27.9 °F 45% 30.10 in 10.0 mi WSW 3.5 mph - N/A   Clear
11:55 AM 49.5 °F - 28.2 °F 44% 30.09 in 10.0 mi SW 3.5 mph - N/A   Clear
12:15 PM 50.0 °F - 26.4 °F 40% 30.08 in 10.0 mi SW 4.6 mph - N/A   Clear
12:35 PM 50.4 °F - 28.0 °F 42% 30.07 in 10.0 mi SW 3.5 mph - N/A   Clear
1:15 PM 52.0 °F - 26.4 °F 37% 30.06 in 10.0 mi WSW 6.9 mph - N/A   Clear
1:35 PM 52.7 °F - 25.3 °F 35% 30.06 in 10.0 mi West 5.8 mph - N/A   Clear
1:55 PM 52.7 °F - 25.0 °F 34% 30.05 in 10.0 mi WSW 8.1 mph - N/A   Clear
2:15 PM 52.3 °F - 24.8 °F 34% 30.05 in 10.0 mi WSW 5.8 mph - N/A   Clear
2:35 PM 52.5 °F - 27.1 °F 38% 30.05 in 10.0 mi WSW 6.9 mph - N/A   Clear
2:55 PM 52.3 °F - 26.6 °F 37% 30.04 in 10.0 mi West 5.8 mph - N/A   Clear
3:15 PM 52.3 °F - 26.4 °F 37% 30.04 in 10.0 mi WSW 5.8 mph - N/A   Clear
3:35 PM 50.9 °F - 27.0 °F 40% 30.04 in 10.0 mi SW 5.8 mph - N/A   Clear
3:55 PM 50.9 °F - 31.3 °F 47% 30.04 in 10.0 mi SW 6.9 mph - N/A   Clear
4:15 PM 50.4 °F - 30.4 °F 46% 30.04 in 10.0 mi SW 5.8 mph - N/A   Clear
4:35 PM 50.2 °F - 32.2 °F 50% 30.04 in 10.0 mi SW 8.1 mph - N/A   Clear
4:55 PM 49.1 °F - 32.9 °F 54% 30.04 in 10.0 mi SW 8.1 mph - N/A   Clear
5:15 PM 48.7 °F - 32.9 °F 54% 30.04 in 10.0 mi SSW 11.5 mph - N/A   Clear
5:35 PM 47.8 °F - 32.2 °F 55% 30.04 in 10.0 mi SW 9.2 mph - N/A   Clear
5:55 PM 46.9 °F - 32.0 °F 56% 30.05 in 10.0 mi SW 9.2 mph - N/A   Clear
6:15 PM 46.4 °F 41.5 °F 31.8 °F 57% 30.06 in 10.0 mi SW 10.4 mph - N/A   Clear
6:35 PM 46.4 °F 42.4 °F 32.4 °F 58% 30.05 in 10.0 mi SW 8.1 mph - N/A   Clear
6:55 PM 46.2 °F 42.2 °F 33.1 °F 60% 30.06 in 10.0 mi SW 8.1 mph - N/A   Clear
7:15 PM 46.4 °F 41.9 °F 34.9 °F 64% 30.05 in 10.0 mi SW 9.2 mph - N/A   Clear
7:35 PM 46.0 °F 41.9 °F 35.4 °F 66% 30.05 in 10.0 mi SW 8.1 mph - N/A   Clear
7:55 PM 45.9 °F 41.7 °F 36.1 °F 69% 30.05 in 10.0 mi SW 8.1 mph - N/A   Clear
8:15 PM 45.7 °F 42.0 °F 36.7 °F 71% 30.05 in 10.0 mi SW 6.9 mph - N/A   Clear
8:35 PM 45.5 °F 42.5 °F 36.5 °F 71% 30.05 in 10.0 mi SW 5.8 mph - N/A   Clear
8:55 PM 45.7 °F 42.7 °F 36.9 °F 71% 30.05 in 10.0 mi SW 5.8 mph - N/A   Clear
9:15 PM 45.7 °F 42.0 °F 36.7 °F 71% 30.04 in 10.0 mi SW 6.9 mph - N/A   Clear
9:55 PM 45.5 °F 41.8 °F 36.9 °F 72% 30.05 in 10.0 mi SW 6.9 mph - N/A   Clear
10:15 PM 45.5 °F 41.8 °F 36.7 °F 71% 30.05 in 10.0 mi SW 6.9 mph - N/A   Clear
10:35 PM 45.7 °F 42.0 °F 36.3 °F 70% 30.05 in 10.0 mi SW 6.9 mph - N/A   Clear
10:55 PM 45.1 °F 42.0 °F 36.0 °F 70% 30.05 in 10.0 mi SW 5.8 mph - N/A   Clear
11:15 PM 44.6 °F 41.4 °F 35.6 °F 71% 30.04 in 10.0 mi SW 5.8 mph - N/A   Clear
11:35 PM 45.0 °F 41.2 °F 35.1 °F 68% 30.04 in 10.0 mi WSW 6.9 mph - N/A   Clear
11:55 PM 44.8 °F 41.6 °F 35.1 °F 69% 30.04 in 10.0 mi SW 5.8 mph - N/A   Clear